Wind_Speed
30 32 33 33 33 35 38 39 38 37 37 36 35 35 35 35 36 38 39 40 41 43 45 47 48 48 50 53 56 57 59 62 65 67 68 68 69 70 72 75 77 79 81
25 29 31 33 34 37 40 39 38 37 36 35 35 36 37 38 39 40 42 43 44 46 49 51 53 54 56 58 60 62 65 68 72 75 76 75 74 74 73 73 74 75 77
24 29 31 32 33 36 39 38 37 37 37 37 38 39 40 40 42 44 45 47 49 51 54 55 57 59 61 63 65 68 71 73 76 77 78 77 75 69 65 64 64 64 64
26 31 33 32 31 35 36 36 36 38 39 40 41 42 42 44 46 48 50 53 55 57 58 60 62 65 67 67 67 67 67 68 69 70 69 66 62 57 53 53 54 54 55
30 33 35 34 34 35 37 38 39 40 42 44 45 46 46 48 50 52 54 56 58 60 61 64 66 66 63 60 58 57 57 57 56 54 53 52 51 51 51 50 50 49 48
36 38 37 36 36 38 39 42 43 44 44 46 48 48 50 51 53 55 57 58 60 61 64 65 62 57 53 50 49 50 50 50 50 49 49 49 49 50 50 50 49 45 41
40 40 38 37 37 39 42 46 47 46 47 48 50 51 52 54 56 57 59 60 61 62 63 59 52 49 45 44 46 47 47 47 47 47 48 48 48 48 48 48 46 42 38
40 41 41 39 39 40 45 49 48 47 50 52 52 54 55 57 58 59 61 61 62 62 57 49 46 44 42 43 44 44 46 47 48 48 47 46 46 45 45 44 43 40 36
37 38 40 40 41 43 48 50 48 49 52 55 55 55 57 58 60 61 61 62 62 56 47 43 42 41 41 43 44 46 48 49 49 49 49 46 43 41 39 38 37 35 32
34 36 39 41 43 47 50 51 50 51 54 56 56 57 59 61 61 61 61 61 52 43 39 39 39 40 43 45 47 49 50 51 52 51 50 49 46 43 41 37 35 34 30
36 37 39 42 46 49 51 51 52 53 55 56 58 60 62 62 61 60 58 50 40 37 37 37 39 42 44 46 49 51 52 53 52 52 50 49 47 44 42 39 35 33 29
38 37 38 44 48 48 48 50 52 54 56 59 61 62 63 61 60 56 48 39 36 36 37 38 41 44 47 49 50 51 52 52 50 49 47 45 44 42 41 38 34 31 27
40 38 41 44 43 42 44 48 52 56 59 62 62 62 61 60 56 48 40 36 36 37 38 41 44 47 49 49 50 50 50 49 48 45 43 41 39 37 36 36 33 29 24
43 43 40 36 36 40 45 50 55 60 63 62 61 59 59 56 47 40 37 36 37 39 41 45 48 49 49 49 48 48 48 47 45 42 40 38 35 32 31 31 29 26 22
41 34 31 33 37 42 48 54 60 62 61 59 57 57 54 45 38 36 36 37 39 42 45 48 50 51 49 48 47 45 44 42 40 39 37 34 31 27 26 26 24 22 20
33 30 31 35 40 46 52 58 60 59 57 56 55 52 44 38 36 37 38 40 42 46 49 51 52 50 48 47 47 44 41 39 36 35 33 31 27 24 23 22 21 19 18
31 30 34 39 45 50 54 56 55 55 53 53 50 43 38 37 37 39 41 43 46 48 50 52 51 50 49 46 44 42 39 37 35 32 30 27 24 21 20 19 17 16 15
34 40 42 44 47 50 52 52 51 50 50 49 43 38 36 37 39 41 44 47 49 51 52 51 50 50 48 45 42 40 38 35 32 28 25 23 21 19 17 16 14 12 11
43 43 44 46 47 48 48 48 47 46 46 41 36 35 37 39 41 43 46 48 50 51 51 50 50 48 44 42 39 37 34 30 25 23 22 21 19 16 14 13 12 10 10
43 43 44 45 45 45 45 43 43 43 39 34 33 35 37 40 42 45 47 49 50 51 51 51 48 44 41 39 35 29 26 22 20 20 19 18 16 12 11 11 12 11 10
41 40 40 40 41 41 39 40 41 37 32 31 33 35 38 41 43 45 47 48 50 52 51 48 44 42 40 36 30 24 21 19 18 16 16 15 11 8 9 12 12 11 10
35 34 34 35 35 35 37 38 34 30 29 30 33 36 39 41 43 44 46 48 50 50 47 44 42 40 36 30 26 23 20 18 16 15 14 12 6 5 10 12 11 10 8
30 31 32 32 32 34 34 30 26 25 28 31 34 37 39 41 43 43 45 47 47 46 43 42 39 34 29 26 25 23 20 18 16 14 11 6 4 8 12 12 11 10 13
29 31 31 30 31 30 26 22 22 25 28 31 35 37 39 41 42 42 43 44 43 42 41 38 32 26 24 23 23 21 19 17 12 6 3 3 7 10 14 15 15 16 19
28 28 26 27 26 22 18 19 21 25 28 32 34 37 39 41 41 40 42 42 41 40 37 32 26 22 21 20 20 18 14 8 4 4 3 5 9 13 18 20 19 19 19
23 23 23 22 18 14 15 18 21 25 29 32 34 37 39 41 40 40 41 41 39 37 33 29 24 21 20 20 20 15 9 7 9 9 8 8 10 14 20 22 22 21 20
Wind_Direction
298 301 304 307 313 319 321 323 323 322 320 317 315 313 312 312 311 309 307 306 304 304 302 301 300 298 297 295 294 291 288 287 286 286 286 285 285 285 285 285 285 282 279
295 298 298 301 309 316 320 323 323 321 320 318 315 314 312 312 310 309 307 306 304 303 302 301 300 299 297 295 293 291 288 287 287 287 286 286 285 286 287 288 287 285 282
293 295 297 301 309 317 321 322 320 319 318 318 316 315 313 311 309 307 307 306 305 305 304 303 301 300 298 295 294 293 292 291 289 288 288 287 287 286 287 288 289 288 286
288 291 293 297 304 313 319 320 319 319 319 318 317 315 312 309 307 307 307 307 306 305 305 304 302 301 300 299 299 298 297 295 293 291 290 289 288 287 287 287 290 291 289
287 287 288 292 298 307 313 316 317 317 316 316 315 313 310 308 307 307 306 306 305 305 305 304 304 303 302 303 303 303 303 302 300 298 294 292 291 290 290 289 290 291 289
286 288 287 289 296 303 306 309 311 312 313 314 313 312 310 308 307 307 306 306 306 305 305 304 303 303 303 304 305 306 306 306 304 302 299 296 294 292 291 291 290 290 289
284 288 288 290 295 300 303 306 308 312 315 316 314 311 309 308 308 308 307 306 305 304 303 301 301 302 302 304 306 307 308 308 306 304 301 298 295 294 293 291 289 286 284
281 285 287 289 293 299 302 305 307 311 315 316 314 311 310 309 308 307 305 304 303 302 301 298 300 301 303 305 306 308 309 310 308 304 301 298 295 293 293 293 291 286 279
278 282 284 287 291 295 299 304 308 311 313 313 312 310 308 307 307 306 305 304 304 301 298 298 300 302 304 306 308 309 311 312 309 304 298 293 291 290 291 295 297 293 283
275 278 283 286 287 290 296 304 308 308 309 310 309 308 308 308 308 308 307 307 304 300 298 301 303 305 307 309 309 309 311 312 310 305 298 291 285 283 285 291 296 298 293
276 278 281 280 281 286 295 302 305 307 309 310 310 310 309 310 310 309 309 308 304 301 302 304 306 309 311 310 310 310 311 312 311 307 300 292 285 280 279 283 291 298 296
277 279 276 273 278 287 297 303 307 309 309 310 309 310 310 311 310 309 308 304 302 303 305 307 309 312 312 311 310 311 312 313 311 308 303 296 287 280 276 277 283 291 293
280 275 270 272 282 295 304 310 312 310 309 309 309 310 310 310 309 306 302 302 303 305 307 310 312 313 312 311 310 310 312 312 311 309 306 300 291 282 275 274 277 283 286
274 271 269 280 296 305 310 313 312 310 309 309 310 311 311 310 307 303 302 304 305 307 309 311 312 313 312 311 310 309 310 311 310 310 308 305 297 285 277 273 273 275 278
271 275 288 299 305 308 311 312 311 309 309 311 312 312 312 310 306 305 305 306 307 309 311 312 313 313 312 311 311 308 307 307 309 309 308 305 298 289 279 272 267 267 270
275 284 297 306 307 308 309 310 310 310 311 313 313 312 310 309 308 308 308 308 310 312 314 314 314 313 312 311 310 307 304 304 306 309 308 305 298 289 282 272 263 260 263
282 300 312 310 308 309 309 309 310 312 313 313 312 310 308 309 310 310 311 312 314 315 315 315 315 314 313 311 309 306 302 301 302 307 308 305 298 287 281 271 260 256 256
293 311 314 309 308 307 308 309 311 313 313 312 310 308 308 311 313 314 314 316 317 317 317 317 317 315 313 311 309 307 303 300 300 304 307 305 298 286 276 264 253 245 239
303 311 310 306 305 305 307 310 312 312 311 310 308 308 311 314 315 316 318 319 320 320 320 320 318 317 315 313 312 311 307 301 298 302 305 303 297 283 268 249 229 219 214
303 305 303 302 303 305 308 311 312 311 309 307 308 311 313 315 317 320 322 323 324 323 323 323 322 321 320 320 320 318 310 300 297 301 303 301 294 274 250 222 203 198 202
298 299 299 301 304 307 310 310 309 307 306 306 309 313 315 319 322 324 326 326 326 327 327 327 326 326 325 325 326 324 315 305 301 304 304 301 289 252 214 193 188 193 206
292 296 300 304 307 308 308 307 306 304 305 309 313 316 320 324 327 328 329 330 330 331 331 330 328 327 327 328 329 327 319 310 304 304 304 301 273 200 177 176 180 190 200
290 295 301 306 307 306 306 305 302 303 309 314 317 321 326 329 332 332 332 332 333 333 332 330 329 329 330 331 332 330 323 313 304 298 293 281 199 163 162 163 164 162 155
294 298 301 301 303 305 305 301 303 309 315 319 322 327 331 334 335 334 334 334 335 335 335 335 335 337 339 338 337 333 327 320 313 294 260 202 160 155 155 150 142 139 140
295 297 296 299 304 306 301 302 309 317 321 324 328 332 336 337 336 335 336 337 337 339 341 342 342 345 348 347 344 341 341 353 45 91 104 138 152 156 155 147 138 135 135
292 294 298 303 306 302 303 311 320 323 326 330 334 337 339 339 338 338 339 341 342 344 346 346 345 349 355 356 356 1 17 62 89 85 83 103 135 154 157 150 143 138 135
Height
5861 5859 5856 5854 5851 5848 5844 5840 5835 5832 5829 5826 5823 5820 5816 5813 5809 5805 5801 5797 5793 5789 5784 5779 5775 5771 5766 5761 5756 5752 5746 5740 5735 5730 5727 5724 5720 5715 5710 5705 5700 5695 5690
5857 5855 5853 5850 5848 5844 5838 5833 5829 5825 5822 5820 5816 5813 5808 5803 5799 5795 5791 5787 5783 5779 5773 5768 5763 5758 5753 5747 5741 5736 5730 5724 5716 5709 5705 5702 5702 5697 5691 5683 5676 5670 5664
5853 5850 5847 5845 5842 5838 5833 5828 5824 5820 5817 5813 5809 5805 5800 5795 5791 5787 5782 5777 5772 5766 5761 5755 5749 5743 5736 5730 5723 5717 5710 5704 5696 5687 5681 5677 5676 5674 5671 5661 5655 5649 5643
5849 5846 5842 5840 5837 5834 5829 5824 5819 5815 5810 5806 5802 5797 5793 5788 5783 5777 5772 5765 5759 5753 5747 5741 5734 5727 5719 5712 5705 5697 5690 5683 5675 5668 5661 5656 5653 5651 5649 5644 5638 5632 5626
5844 5841 5837 5835 5832 5828 5823 5818 5813 5807 5803 5799 5795 5790 5785 5779 5773 5766 5760 5754 5747 5740 5733 5726 5718 5711 5703 5696 5688 5681 5674 5666 5658 5651 5645 5641 5638 5635 5632 5628 5624 5619 5613
5837 5834 5832 5829 5825 5821 5816 5812 5806 5801 5797 5793 5787 5781 5775 5768 5762 5756 5749 5743 5735 5727 5719 5711 5704 5697 5690 5683 5676 5669 5662 5655 5647 5641 5634 5629 5626 5622 5618 5614 5610 5607 5603
5830 5827 5825 5822 5818 5814 5809 5803 5798 5793 5789 5784 5778 5771 5765 5758 5751 5744 5737 5730 5723 5715 5708 5699 5692 5686 5679 5673 5666 5659 5652 5645 5638 5631 5624 5618 5613 5609 5605 5601 5597 5595 5593
5822 5820 5817 5814 5810 5805 5800 5795 5790 5785 5780 5774 5768 5761 5755 5748 5741 5734 5726 5719 5711 5703 5695 5688 5681 5675 5669 5662 5656 5649 5642 5635 5628 5622 5615 5610 5604 5598 5594 5589 5585 5583 5582
5815 5812 5809 5806 5802 5798 5792 5787 5782 5778 5772 5766 5760 5753 5747 5739 5731 5723 5714 5705 5697 5688 5681 5676 5670 5665 5659 5652 5645 5639 5631 5625 5618 5611 5605 5600 5594 5589 5585 5580 5575 5572 5570
5807 5805 5802 5799 5795 5789 5783 5780 5776 5771 5765 5758 5751 5744 5736 5728 5719 5710 5700 5691 5682 5675 5671 5666 5660 5655 5649 5642 5635 5628 5620 5613 5605 5599 5592 5587 5583 5579 5575 5572 5567 5563 5560
5799 5797 5794 5790 5785 5779 5776 5772 5767 5762 5755 5748 5740 5732 5724 5715 5706 5697 5687 5678 5672 5667 5662 5657 5651 5645 5638 5631 5624 5616 5608 5600 5592 5584 5578 5573 5569 5567 5564 5562 5559 5555 5551
5790 5789 5785 5779 5774 5771 5768 5763 5758 5752 5745 5737 5729 5721 5712 5703 5694 5685 5676 5669 5664 5659 5653 5647 5641 5635 5627 5619 5611 5603 5595 5587 5579 5571 5564 5559 5555 5553 5552 5551 5550 5547 5544
5782 5777 5772 5767 5764 5762 5758 5754 5748 5741 5734 5726 5718 5710 5701 5693 5683 5674 5667 5661 5656 5650 5644 5638 5631 5624 5615 5607 5599 5590 5582 5574 5566 5559 5553 5547 5542 5541 5540 5540 5540 5539 5537
5769 5765 5761 5758 5755 5752 5747 5743 5737 5731 5723 5715 5707 5699 5691 5682 5673 5666 5660 5654 5648 5642 5635 5628 5621 5612 5603 5594 5586 5577 5569 5562 5555 5548 5542 5537 5532 5530 5529 5530 5531 5531 5531
5757 5753 5750 5748 5745 5742 5738 5733 5727 5720 5713 5705 5696 5688 5680 5672 5665 5658 5652 5647 5640 5633 5626 5618 5609 5600 5591 5581 5573 5565 5558 5551 5545 5539 5533 5527 5523 5520 5520 5521 5522 5524 5524
5745 5743 5741 5739 5737 5734 5729 5723 5716 5709 5701 5694 5686 5678 5670 5664 5657 5651 5645 5639 5631 5623 5615 5606 5596 5587 5578 5569 5560 5553 5547 5541 5535 5530 5523 5518 5515 5513 5512 5513 5515 5517 5518
5736 5735 5733 5731 5728 5723 5718 5711 5705 5698 5690 5683 5676 5669 5663 5657 5650 5644 5637 5629 5621 5613 5603 5594 5584 5575 5565 5557 5549 5542 5535 5530 5525 5520 5515 5511 5507 5506 5506 5506 5508 5511 5512
5728 5727 5724 5721 5717 5713 5708 5701 5695 5688 5681 5675 5668 5662 5656 5649 5642 5635 5628 5619 5610 5601 5591 5582 5572 5563 5553 5545 5538 5530 5524 5519 5515 5511 5507 5504 5501 5500 5500 5501 5503 5506 5507
5720 5718 5716 5712 5708 5704 5699 5692 5685 5679 5673 5667 5661 5656 5649 5642 5635 5627 5618 5609 5600 5590 5580 5570 5560 5551 5542 5534 5527 5520 5513 5509 5506 5503 5500 5498 5495 5494 5494 5496 5499 5502 5504
5712 5711 5708 5705 5701 5696 5690 5683 5677 5672 5667 5661 5656 5650 5643 5636 5627 5618 5609 5599 5589 5579 5569 5558 5548 5539 5532 5524 5517 5511 5505 5501 5498 5497 5494 5492 5490 5489 5490 5493 5495 5498 5501
5706 5704 5701 5697 5692 5687 5681 5677 5672 5667 5662 5656 5650 5644 5637 5629 5620 5610 5600 5590 5580 5569 5558 5548 5538 5530 5523 5515 5510 5504 5499 5495 5493 5491 5489 5487 5486 5485 5487 5490 5493 5496 5498
5699 5697 5694 5689 5684 5680 5676 5672 5667 5662 5657 5651 5645 5638 5630 5621 5612 5602 5592 5582 5571 5560 5550 5540 5531 5523 5516 5509 5504 5499 5495 5491 5489 5487 5485 5484 5483 5483 5485 5489 5492 5494 5496
5693 5690 5687 5682 5678 5675 5671 5666 5662 5657 5652 5646 5639 5632 5624 5614 5605 5596 5586 5575 5565 5554 5544 5535 5526 5518 5511 5505 5500 5495 5491 5487 5484 5482 5481 5481 5481 5482 5485 5488 5491 5493 5495
5686 5683 5680 5676 5673 5669 5665 5662 5658 5653 5647 5641 5634 5626 5617 5609 5600 5590 5580 5571 5560 5550 5539 5529 5521 5514 5508 5502 5497 5492 5487 5483 5480 5479 5479 5480 5481 5483 5486 5489 5492 5495 5497
5679 5677 5674 5671 5667 5664 5661 5658 5654 5649 5643 5637 5629 5620 5612 5604 5595 5585 5576 5566 5556 5545 5535 5526 5518 5512 5507 5501 5495 5490 5485 5482 5480 5480 5481 5481 5482 5484 5487 5491 5495 5499 5502
5675 5672 5669 5666 5663 5661 5659 5655 5651 5646 5639 5632 5624 5616 5608 5599 5590 5581 5571 5561 5551 5541 5531 5523 5516 5510 5505 5499 5494 5489 5486 5484 5484 5484 5484 5484 5484 5486 5489 5494 5498 5502 5506